Terug naar catalogus

THOR ABLESTAR DEB

ActiefLEO
NORAD 48814·DEBRIS·🇺🇸 United States

Gelanceerd Jun 29, 1961 vanaf Cape Canaveral Space Force Station

Loading…

Volgende Passages (komende 24 uur)

TLE

VersSource: Space-Track

Epoch: Sep 14, 2026, 06:57 UTC

1 48814U 61015MS  26257.29008461  .00001826  00000-0  13411-2 0  9999
2 48814  65.9038   6.1869 0015243 108.3192 251.9543 13.98076875648020

Volg THOR ABLESTAR DEB in realtime met AllMySat

Download on the App Store